[[{"header":{"parameterUnit":"m.s-1","parameterCategory":1,"la1":30.2991,"la2":30.254,"lo1":-89.0895,"lo2":-89.0444,"dy":0.0017,"dx":0.0017,"nx":28,"ny":28,"refTime":"2024-04-01T09:00:00:Z","depth":0,"parameterNumber":2,"parameterNumberName":"U-component_of_WINDS"},"data":[0,0,0,0,0,0,0,0,0,0,0,0,0,0,0,0,0,0,0,0,0,0,0,0,0,0,0,0,0,0,0,0,0,0,0,0,0,0,0,0,0,0,0,0,0,0,0,0,0,0,0,0,0,0,0,0,0,0,-0.7414,-0.7414,0,-0.7398,-0.7398,-0.7398,-0.7407,-0.7408,-0.7408,-0.7408,-0.7391,-0.739,-0.7389,0,0,0,0,0,0,0,0,0,0,0,0,0,-0.7451,-0.745,-0.7414,-0.7414,-0.7414,-0.7398,-0.7398,-0.7398,-0.7407,-0.7408,-0.7408,-0.7409,-0.7391,-0.739,-0.7389,0,0,0,0,0,0,0,0,0,0,0,0,0,-0.7435,-0.745,-0.7414,-0.7416,-0.7417,-0.7398,-0.7398,-0.7398,-0.7407,-0.7408,-0.7408,-0.7409,-0.7391,-0.739,-0.7389,-0.7367,0,0,-0.7385,-0.7384,0,0,0,0,0,0,0,0,-0.7436,-0.7434,-0.7416,-0.7416,-0.7416,-0.7405,-0.7405,-0.7387,-0.7407,-0.741,-0.7408,-0.7409,-0.7395,-0.7393,-0.7389,-0.7366,-0.7365,-0.7384,-0.7384,-0.7383,-0.7383,0,0,0,0,0,0,0,-0.7437,-0.7434,-0.7408,-0.7416,-0.7416,-0.7418,-0.7416,-0.7401,-0.7399,-0.741,-0.7411,-0.7409,-0.7395,-0.739,-0.7388,-0.7365,-0.7385,-0.7383,-0.7382,-0.7382,-0.7324,-0.7323,0,0,0,0,0,0,-0.7438,-0.7435,-0.7408,-0.7407,-0.7428,-0.7417,-0.7415,-0.7408,-0.7399,-0.7399,-0.7408,-0.7409,-0.7392,-0.739,-0.7388,-0.7362,-0.7383,-0.7382,-0.7381,-0.7325,-0.7324,-0.7323,0,0,0,0,0,0,-0.7439,-0.7436,-0.7409,-0.7422,-0.7418,-0.7415,-0.7408,-0.7408,-0.7403,-0.7398,-0.7397,-0.7404,-0.7392,-0.739,-0.7372,-0.7361,-0.7381,-0.738,-0.7325,-0.7324,-0.7323,-0.7309,0,0,0,0,0,0,-0.744,-0.7436,-0.7428,-0.7421,-0.7418,-0.7394,-0.7407,-0.7407,-0.74,-0.7402,-0.7393,-0.7393,-0.7393,-0.7374,-0.7371,-0.736,-0.7379,-0.7326,-0.7325,-0.7324,-0.7311,-0.7308,-0.7305,0,0,0,0,0,-0.7441,-0.7424,-0.7427,-0.7424,-0.7407,-0.7393,-0.7391,-0.7392,-0.74,-0.7391,-0.7388,-0.7393,-0.7363,-0.7372,-0.7369,-0.7357,-0.7327,-0.7325,-0.7324,-0.7312,-0.7308,-0.7305,0,0,0,0,0,0,-0.7429,-0.7423,-0.7427,-0.7407,-0.7401,-0.7395,-0.7384,-0.7388,-0.7379,-0.738,-0.7381,-0.7379,-0.7361,-0.7357,-0.7368,-0.7336,-0.7346,-0.7344,-0.7339,-0.7335,-0.7333,-0.7333,-0.7378,0,0,0,0,0,-0.7424,-0.7413,-0.7409,-0.7392,-0.7389,-0.7387,-0.7381,-0.7382,-0.7375,-0.7372,-0.7368,-0.7361,-0.735,-0.7342,-0.7332,-0.7311,-0.7309,-0.7301,-0.7298,-0.7296,-0.7294,-0.7282,-0.7278,-0.7317,-0.7317,-0.7317,0,0,-0.7414,-0.7409,-0.7402,-0.7389,-0.7384,-0.7373,-0.7385,-0.7372,-0.7363,-0.737,-0.7353,-0.735,-0.7342,-0.7322,-0.7314,-0.7319,-0.7283,-0.7294,-0.7292,-0.7291,-0.728,-0.7276,-0.7273,-0.7316,-0.7317,-0.7317,0,0,-0.7389,-0.7384,-0.737,-0.7365,-0.7357,-0.7357,-0.7353,-0.7347,-0.7345,-0.7328,-0.7333,-0.7323,-0.7304,-0.7298,-0.7293,-0.7266,-0.727,-0.7263,-0.7248,-0.7237,-0.7234,-0.7231,-0.7221,-0.7218,-0.726,-0.726,-0.726,0,-0.7376,-0.7359,-0.7362,-0.7349,-0.7343,-0.7349,-0.7334,-0.7329,-0.7319,-0.7314,-0.7321,-0.7297,-0.7292,-0.7271,-0.7265,-0.726,-0.7256,-0.7263,-0.7234,-0.7232,-0.7229,-0.722,-0.7216,-0.726,-0.726,-0.726,-0.726,0,-0.7345,-0.7333,-0.7322,-0.7312,-0.7305,-0.7291,-0.7291,-0.7283,-0.7286,-0.7284,-0.7267,-0.7261,-0.725,-0.7245,-0.7247,-0.7225,-0.7228,-0.7234,-0.7245,-0.7224,-0.7216,-0.7212,-0.7258,-0.7259,-0.7259,-0.7259,0,0,-0.7311,-0.7303,-0.7298,-0.7294,-0.7287,-0.7277,-0.7264,-0.7253,-0.7247,-0.724,-0.7228,-0.7212,-0.7218,-0.7212,-0.7213,-0.7203,-0.7182,-0.721,-0.721,-0.7205,-0.7157,-0.7152,-0.7147,-0.7185,-0.7184,-0.7184,-0.7157,0,-0.7285,-0.7261,-0.7263,-0.7241,-0.723,-0.7236,-0.7224,-0.7218,-0.7217,-0.7207,-0.7205,-0.7194,-0.7202,-0.7199,-0.7189,-0.7187,-0.7172,-0.7189,-0.7174,-0.7173,-0.7175,-0.7143,-0.7138,-0.7113,-0.7154,-0.7153,-0.7153,0,-0.7251,-0.7243,-0.722,-0.7214,-0.721,-0.7199,-0.719,-0.718,-0.7174,-0.7173,-0.7167,-0.717,-0.7156,-0.7168,-0.7148,-0.7159,-0.7153,-0.7151,-0.715,-0.7148,-0.7161,-0.714,-0.7105,-0.7101,-0.7148,-0.7148,-0.7148,0,-0.7228,-0.7212,-0.7196,-0.7192,-0.7185,-0.7177,-0.7174,-0.7168,-0.7162,-0.7153,-0.7149,-0.7139,-0.7134,-0.7126,-0.7126,-0.7135,-0.7106,-0.7118,-0.7105,-0.7105,-0.7098,-0.7099,-0.7062,-0.7095,-0.7096,-0.7096,-0.7096,0,-0.7199,-0.7184,-0.7185,-0.7175,-0.7159,-0.7161,-0.7145,-0.7143,-0.7137,-0.7127,-0.7132,-0.7122,-0.7123,-0.7113,-0.7113,-0.7097,-0.7094,-0.7093,-0.7093,-0.7093,-0.7093,-0.7088,-0.709,-0.7095,-0.7095,-0.7095,-0.7095,0,-0.717,-0.717,-0.7153,-0.7148,-0.7147,-0.7135,-0.7131,-0.7121,-0.712,-0.7107,-0.7104,-0.7102,-0.7091,-0.709,-0.7077,-0.7077,-0.7057,-0.7059,-0.7059,-0.706,-0.7047,-0.7048,-0.7005,-0.6999,-0.7037,-0.7037,-0.7037,0,-0.7151,-0.714,-0.7134,-0.7128,-0.7124,-0.7113,-0.7107,-0.7109,-0.7102,-0.7094,-0.7085,-0.7074,-0.7066,-0.7047,-0.7044,-0.7034,-0.7036,-0.7022,-0.7034,-0.7034,-0.7035,-0.7035,-0.7034,-0.7019,-0.7018,-0.7018,-0.7018,0,-0.7117,-0.7118,-0.7109,-0.7099,-0.7092,-0.7085,-0.7078,-0.7072,-0.7073,-0.7065,-0.7054,-0.7047,-0.7034,-0.7023,-0.7013,-0.7009,-0.7013,-0.7014,-0.701,-0.7009,-0.7009,-0.7009,-0.7052,-0.7015,-0.7015,-0.7015,-0.7015,-0.7016,-0.7092,-0.7083,-0.7077,-0.7067,-0.7062,-0.7056,-0.7047,-0.7045,-0.7035,-0.7025,-0.7027,-0.7013,-0.7007,-0.6995,-0.6991,-0.698,-0.6985,-0.698,-0.6979,-0.6977,-0.6976,-0.7012,-0.6979,-0.6979,-0.6979,-0.6979,-0.6979,0,-0.7058,-0.7055,-0.7046,-0.7036,-0.7028,-0.7034,-0.7027,-0.7019,-0.7008,-0.7002,-0.6993,-0.698,-0.697,-0.6966,-0.6956,-0.6949,-0.695,-0.6946,-0.6946,-0.6945,-0.6972,-0.6976,-0.6945,-0.6945,-0.6945,-0.6945,-0.6945,-0.6945,-0.704,-0.7024,-0.7024,-0.7006,-0.7003,-0.699,-0.6986,-0.698,-0.6975,-0.696,-0.6951,-0.695,-0.6945,-0.6934,-0.6925,-0.6924,-0.692,-0.6915,-0.6915,-0.694,-0.6943,-0.6946,-0.695,-0.6914,-0.6914,-0.6889,-0.6888,-0.6888]},{"header":{"parameterUnit":"m.s-1","parameterCategory":1,"la1":30.2991,"la2":30.254,"lo1":-89.0895,"lo2":-89.0444,"dy":0.0017,"dx":0.0017,"nx":28,"ny":28,"refTime":"2024-04-01T09:00:00:Z","depth":0,"parameterNumber":3,"parameterNumberName":"V-component_of_WINDS"},"data":[0,0,0,0,0,0,0,0,0,0,0,0,0,0,0,0,0,0,0,0,0,0,0,0,0,0,0,0,0,0,0,0,0,0,0,0,0,0,0,0,0,0,0,0,0,0,0,0,0,0,0,0,0,0,0,0,0,0,6.2494,6.2495,0,6.2596,6.2597,6.2598,6.2567,6.2565,6.2563,6.2561,6.2657,6.2662,6.2666,0,0,0,0,0,0,0,0,0,0,0,0,0,6.2268,6.2272,6.2494,6.2496,6.2497,6.2595,6.2597,6.2598,6.2568,6.2565,6.2563,6.256,6.2656,6.2661,6.2666,0,0,0,0,0,0,0,0,0,0,0,0,0,6.2367,6.2274,6.2494,6.2494,6.2495,6.2595,6.2597,6.2598,6.2568,6.2565,6.2562,6.2559,6.2654,6.2661,6.2667,6.2772,0,0,6.2688,6.2691,0,0,0,0,0,0,0,0,6.2362,6.2376,6.2493,6.2494,6.2495,6.2566,6.2552,6.2656,6.2569,6.254,6.2561,6.2557,6.2629,6.2637,6.2663,6.2776,6.278,6.2688,6.2693,6.2695,6.2697,0,0,0,0,0,0,0,6.2355,6.2371,6.2534,6.2494,6.2496,6.2486,6.2497,6.2572,6.26,6.2542,6.254,6.2553,6.2629,6.2657,6.2665,6.2782,6.2688,6.2694,6.2698,6.2701,6.2987,6.299,0,0,0,0,0,0,6.2348,6.2365,6.2531,6.2537,6.242,6.2493,6.2505,6.2546,6.26,6.2605,6.2556,6.2551,6.2647,6.2657,6.2668,6.2796,6.2695,6.2702,6.2706,6.2983,6.2988,6.2991,0,0,0,0,0,0,6.2343,6.2363,6.2527,6.2451,6.2471,6.25,6.2547,6.255,6.2578,6.261,6.2614,6.2579,6.2645,6.2659,6.2747,6.2799,6.2705,6.2711,6.2979,6.2985,6.2989,6.3051,0,0,0,0,0,0,6.2337,6.2362,6.2403,6.2452,6.2475,6.2606,6.255,6.2554,6.259,6.2586,6.2633,6.2638,6.2643,6.2737,6.2754,6.2806,6.2716,6.2975,6.2982,6.2988,6.3044,6.3057,6.3069,0,0,0,0,0,6.2329,6.2414,6.2405,6.2426,6.2528,6.2609,6.2622,6.2629,6.2595,6.2636,6.2657,6.2636,6.279,6.2746,6.2765,6.282,6.2971,6.298,6.2987,6.3039,6.3055,6.3068,0,0,0,0,0,0,6.2367,6.2421,6.2411,6.2516,6.2559,6.2604,6.2656,6.2645,6.2696,6.269,6.2693,6.2704,6.2795,6.2816,6.2766,6.2925,6.2875,6.2887,6.2908,6.2924,6.2936,6.2929,6.2722,0,0,0,0,0,6.2389,6.2452,6.2494,6.2582,6.2604,6.2627,6.2662,6.2664,6.2707,6.2724,6.2751,6.2792,6.285,6.2887,6.2942,6.3046,6.3056,6.3093,6.3106,6.3115,6.3126,6.3184,6.3201,6.3017,6.3017,6.3017,0,0,6.2432,6.2469,6.2508,6.2591,6.2624,6.2688,6.2642,6.2711,6.2759,6.2734,6.282,6.2841,6.2887,6.2985,6.3029,6.3005,6.3179,6.3126,6.3133,6.3139,6.3194,6.3211,6.3227,6.3023,6.3022,6.3021,0,0,6.2544,6.2578,6.2657,6.2692,6.2744,6.2759,6.2777,6.2825,6.2839,6.2926,6.291,6.2964,6.3063,6.3097,6.3127,6.3254,6.3237,6.3271,6.3335,6.3392,6.3406,6.3419,6.3465,6.3482,6.3281,6.3281,6.3281,0,6.2591,6.269,6.2697,6.277,6.2806,6.2789,6.2868,6.29,6.2966,6.2991,6.2964,6.3089,6.3118,6.3224,6.3256,6.328,6.3301,6.3266,6.3404,6.3417,6.3429,6.3473,6.349,6.3285,6.3285,6.3284,6.3284,0,6.2745,6.2813,6.287,6.2938,6.2981,6.3055,6.3072,6.3114,6.3112,6.3129,6.3218,6.3253,6.3315,6.3339,6.3336,6.3445,6.3429,6.3403,6.3354,6.345,6.3492,6.3509,6.3291,6.3289,6.3288,6.3287,0,0,6.2885,6.2958,6.2978,6.301,6.3067,6.3119,6.3192,6.3256,6.3292,6.3338,6.3399,6.3484,6.3461,6.3495,6.3495,6.3545,6.3644,6.3512,6.3513,6.3537,6.3767,6.3788,6.3807,6.3633,6.3636,6.3639,6.3764,0,6.3003,6.3136,6.3145,6.3264,6.3328,6.3313,6.3377,6.3417,6.3435,6.349,6.3507,6.3569,6.3533,6.3553,6.3601,6.3622,6.3691,6.3613,6.369,6.3692,6.3681,6.3829,6.3851,6.3967,6.378,6.3783,6.3785,0,6.3159,6.3214,6.3341,6.3391,6.3417,6.3475,6.3535,6.3587,6.3633,6.3642,6.3681,6.3675,6.3749,6.3696,6.3798,6.3745,6.3776,6.3791,6.3795,6.3804,6.3745,6.3842,6.4004,6.4022,6.381,6.3808,6.3806,0,6.3251,6.3355,6.3445,6.3472,6.3532,6.3573,6.3599,6.3642,6.368,6.3731,6.3755,6.3813,6.3845,6.3889,6.3898,6.3859,6.3999,6.3947,6.4009,6.4009,6.404,6.4038,6.421,6.4058,6.4058,6.4057,6.4057,0,6.3383,6.3462,6.3488,6.3543,6.363,6.3639,6.3724,6.3746,6.3785,6.3843,6.3832,6.3886,6.3894,6.395,6.3957,6.404,6.4054,6.4063,6.4064,6.4065,6.4064,6.4086,6.4079,6.4062,6.4061,6.406,6.4059,0,6.3501,6.3521,6.3619,6.3668,6.3682,6.3744,6.3785,6.3837,6.3854,6.3928,6.3945,6.3971,6.4036,6.4049,6.4125,6.413,6.4229,6.4221,6.4215,6.4215,6.4276,6.4271,6.447,6.4497,6.4325,6.4327,6.4328,0,6.3585,6.3645,6.3702,6.3742,6.3772,6.3835,6.3875,6.3885,6.3926,6.3983,6.4029,6.4093,6.4146,6.425,6.4273,6.4331,6.4326,6.4392,6.4334,6.4334,6.4329,6.4326,6.4332,6.4403,6.4405,6.4406,6.4407,0,6.3733,6.374,6.38,6.3864,6.3912,6.3962,6.4009,6.4041,6.4057,6.4104,6.4172,6.4213,6.4293,6.4357,6.4415,6.4439,6.4426,6.4425,6.4443,6.4445,6.444,6.4445,6.4247,6.4421,6.4419,6.4418,6.4418,6.4417,6.3837,6.3891,6.394,6.4007,6.4044,6.4089,6.4141,6.4165,6.4224,6.4291,6.4292,6.4367,6.441,6.4488,6.4516,6.4573,6.4552,6.4577,6.4584,6.459,6.4597,6.443,6.4583,6.4583,6.4583,6.4582,6.4582,0,6.3986,6.4017,6.4079,6.4147,6.4199,6.4185,6.4236,6.428,6.4347,6.439,6.4443,6.4521,6.4584,6.4613,6.4674,6.4714,6.471,6.473,6.4727,6.4733,6.4611,6.4591,6.4732,6.4732,6.4732,6.4732,6.4732,6.4732,6.4069,6.416,6.4174,6.4283,6.4312,6.4388,6.4419,6.446,6.4495,6.4584,6.4637,6.4657,6.4694,6.4758,6.4814,6.482,6.4844,6.4867,6.4871,6.4757,6.4742,6.4727,6.4708,6.4872,6.4872,6.4989,6.499,6.4991]}]]